653  
ASUS42 KKEY 132310  
RWRKEY  
 
FLORIDA KEYS REGIONAL WEATHER ROUNDUP  
NATIONAL WEATHER SERVICE KEY WEST FLORIDA  
700 PM EDT MON JUL 13 2020  
   
..SOUTH FLORIDA AND THE KEYS
 
 
 
CITY SKY/WX TMP DP RH WIND PRES REMARKS
 
FORT MYERS MOSUNNY 90 75 61 W13 29.96S HX 100  
SW REGIONAL AP MOSUNNY 89 75 63 W8 29.97R HX 99  
NAPLES MOSUNNY 88 78 72 W10 29.98R HX 101  
MIAMI PTSUNNY 86 75 69 S7 29.98S HX 95  
WEST KENDALL N/A N/A N/A N/A MISG 29.98S  
HOMESTEAD MOSUNNY 88 75 64 W6 29.98R HX 98  
MARATHON MOSUNNY 84 75 74 CALM 30.00S HX 92  
BOCA CHICA NAS SUNNY 92 69 47 NW10 30.01R HX 97  
KEY WEST INTL SUNNY 89 71 55 W8 30.01R HX 95  
   
..INTERNATIONAL WEATHER
 
 
 
CITY SKY/WX TMP DP RH WIND PRES REMARKS
 
NASSAU PTSUNNY 86 77 74 S6 30.02S HX 97  
CANCUN SUNNY 86 73 66 SE10 29.98S HX 93  
COZUMEL MOSUNNY 88 73 62 SE9 29.97R HX 96  
KINGSTON PTCLDY 90 72 55 SE24 29.92S HX 96  
BELIZE CITY MOSUNNY 88 77 70 E9 29.92F HX 100  
   
..ADJACENT COASTAL WATERS
 
 
 
STATION/POSITION TIME SKY/WX TEMP WIND PRES WAVE
 
AIR SEA DIR/SP/G HT/PER  
(UTC) (F) (DEG/KT/KT) (MB) (FT/S)  
PULASKI SHOAL LI NOT AVBL  
SAND KEY 2250 85 270/ 9/ 11 1016.6R  
SOMBRERO KEY 2250 85 10/ 4/ 6 1016.5R  
LONG KEY 2250 84 240/ 8/ 11 1016.5R  
MOLASSES REEF NOT AVBL  
FOWEY ROCKS 2200 83 86 340/ 11/ 13 1015.6R  
BUOY 42095 2230 87 87 N/A 1/ 6  
BUOY 42097 2226 87 N/A 2/ 4  
 

 
 
 
CLICK HERE TO GO TO PREVIOUS BULLETINS.

The Nexlab FL Page Main Text Page